Wheeling, WV

2:21 PM EDT on October 22, 2017 (GMT -0400)
Wheeling-Ohio County

Weather History for KHLG - November, 2011

Change the Weather History Date:

Tuesday, November 29, 2011

  Actual Average Record
Temperature  
Mean Temperature 50 °F 38 °F  
Max Temperature 61 °F 45 °F 69 °F (2005)
Min Temperature 39 °F 31 °F 12 °F (1952)
Degree Days  
Heating Degree Days 15 27  
Month to date heating degree days 453 627  
Since 1 July heating degree days 722 1101  
Cooling Degree Days 0    
Month to date cooling degree days 0  
Year to date cooling degree days 0  
Moisture  
Dew Point 42 °F    
Average Humidity 79    
Maximum Humidity 93    
Minimum Humidity 65    
Precipitation  
Precipitation 0.33 in 0.12 in 0.91 in (2005)
Month to date precipitation 4.33 3.12  
Sea Level Pressure  
Sea Level Pressure 29.65 in    
Wind  
Wind Speed 12 mph (South)    
Max Wind Speed 29 mph    
Max Gust Speed 41 mph    
Visibility 9 miles    
Events Rain    
T = Trace of Precipitation, MM = Missing Value Source: NWS Daily Summary

Daily Weather History Graph

Daily Weather History Graph

Search for Another Location

Airport or City:

Trip Planner

Search our weather history database for the weather conditions in past years. The results will help you decide how hot, cold, wet, or windy it might be!

Date:

Astronomy

Nov. 29, 2011 Rise Set
Actual Time 7:23 AM EST 4:58 PM EST
Civil Twilight 6:53 AM EST 5:28 PM EST
Nautical Twilight 6:19 AM EST 6:01 PM EST
Astronomical Twilight 5:47 AM EST 6:34 PM EST
Moon 11:09 AM EST (11/29) 9:49 PM EST (11/29)
Length of Visible Light 10h 34m
Length of Day
9h 34m
Waxing Crescent, 24% of the Moon is Illuminated
Nov 29
Waxing Crescent
Dec 2
First Quarter
Dec 10
Full
Dec 17
Last Quarter
Dec 24
New

Hourly Weather History & Observations

Time (EST) Temp. Windchill Dew Point Humidity Pressure Visibility Wind Dir Wind Speed Gust Speed Precip Events Conditions
12:53 AM 57.0 °F - 52.0 °F 83% 29.78 in 10.0 mi ENE 10.4 mph - 0.02 in Rain Light Rain
1:53 AM 57.0 °F - 52.0 °F 83% 29.75 in 10.0 mi ENE 11.5 mph - 0.04 in Rain Light Rain
2:53 AM 57.0 °F - 53.1 °F 87% 29.73 in 10.0 mi East 11.5 mph - 0.02 in Rain Light Rain
3:53 AM 57.9 °F - 54.0 °F 87% 29.69 in 10.0 mi East 11.5 mph - 0.03 in Rain Light Rain
4:53 AM 57.9 °F - 54.0 °F 87% 29.66 in 10.0 mi East 12.7 mph - 0.03 in Rain Light Rain
5:53 AM 59.0 °F - 54.0 °F 83% 29.63 in 10.0 mi East 17.3 mph - 0.03 in Rain Light Rain
6:53 AM 59.0 °F - 54.0 °F 83% 29.62 in 10.0 mi East 15.0 mph 24.2 mph 0.01 in Rain Light Rain
7:53 AM 57.9 °F - 54.0 °F 87% 29.60 in 10.0 mi East 17.3 mph 21.9 mph 0.00 in   Mostly Cloudy
8:53 AM 59.0 °F - 54.0 °F 83% 29.58 in 9.0 mi East 16.1 mph 24.2 mph 0.00 in Rain Light Rain
9:30 AM 57.2 °F - 53.6 °F 88% 29.60 in 2.5 mi ESE 15.0 mph - 0.07 in Rain Heavy Rain
9:44 AM 57.2 °F - 55.4 °F 94% 29.58 in 6.0 mi East 12.7 mph - 0.10 in Rain Light Rain
9:53 AM 57.9 °F - 55.0 °F 90% 29.58 in 7.0 mi East 12.7 mph - 0.12 in Rain Light Rain
10:53 AM 59.0 °F - 52.0 °F 78% 29.57 in 10.0 mi SSE 15.0 mph 21.9 mph 0.04 in   Scattered Clouds
11:39 AM 53.6 °F - 48.2 °F 82% 29.60 in 10.0 mi WSW 21.9 mph 35.7 mph N/A   Mostly Cloudy
11:53 AM 50.0 °F - 45.0 °F 83% 29.62 in 8.0 mi WSW 19.6 mph 38.0 mph N/A   Overcast
12:08 PM 46.4 °F 39.8 °F 42.8 °F 87% 29.62 in 5.0 mi WSW 16.1 mph 40.3 mph 0.00 in Rain Light Rain
12:15 PM 44.6 °F 36.1 °F 39.2 °F 81% 29.63 in 9.0 mi WSW 21.9 mph 38.0 mph 0.00 in Rain Light Rain
12:27 PM 44.6 °F 36.4 °F 37.4 °F 76% 29.64 in 10.0 mi SW 20.7 mph 36.8 mph 0.00 in Rain Light Rain
12:53 PM 44.1 °F 37.4 °F 37.9 °F 79% 29.67 in 10.0 mi SW 13.8 mph 21.9 mph 0.00 in   Overcast
1:53 PM 45.0 °F 38.5 °F 36.0 °F 71% 29.67 in 10.0 mi SW 13.8 mph 25.3 mph N/A   Overcast
2:11 PM 44.6 °F 38.1 °F 35.6 °F 71% 29.64 in 10.0 mi WSW 13.8 mph 21.9 mph N/A   Scattered Clouds
2:50 PM 44.6 °F 37.8 °F 33.8 °F 66% 29.65 in 10.0 mi West 15.0 mph 24.2 mph N/A   Mostly Cloudy
2:53 PM 44.1 °F 37.7 °F 33.1 °F 65% 29.66 in 10.0 mi WSW 12.7 mph 21.9 mph N/A   Mostly Cloudy
3:53 PM 43.0 °F 36.0 °F 33.1 °F 68% 29.66 in 10.0 mi SW 13.8 mph 21.9 mph N/A   Mostly Cloudy
4:10 PM 42.8 °F 38.0 °F 32.0 °F 66% 29.66 in 10.0 mi WSW 8.1 mph 19.6 mph N/A   Scattered Clouds
4:53 PM 41.0 °F 35.8 °F 32.0 °F 70% 29.66 in 10.0 mi WSW 8.1 mph - N/A   Clear
5:53 PM 39.9 °F 35.1 °F 32.0 °F 73% 29.67 in 10.0 mi South 6.9 mph - N/A   Clear
6:53 PM 41.0 °F 37.1 °F 33.1 °F 73% 29.68 in 10.0 mi South 5.8 mph - N/A   Mostly Cloudy
7:53 PM 41.0 °F 35.2 °F 33.1 °F 73% 29.68 in 10.0 mi SW 9.2 mph - N/A   Overcast
8:53 PM 41.0 °F 35.8 °F 30.9 °F 67% 29.67 in 10.0 mi SW 8.1 mph - N/A   Overcast
9:53 PM 39.0 °F 31.8 °F 30.0 °F 70% 29.66 in 10.0 mi SW 11.5 mph - N/A   Partly Cloudy
10:39 PM 39.2 °F 31.6 °F 30.2 °F 70% 29.64 in 10.0 mi SSW 12.7 mph 19.6 mph N/A   Mostly Cloudy
11:53 PM 39.0 °F 31.8 °F 30.0 °F 70% 29.65 in 10.0 mi SW 11.5 mph 18.4 mph N/A   Overcast